Weather in Volgodonsk

Russia / Rostov Oblast     47°30′59″N   42°11′54″E
temp.,
°C
wind,
m/s
gust,
m/s
humid.,
%
clouds,
%
prec.,
mm/h
press.,
hPa
HPBL,
m
2 march, tue
tue200:00−2nne228819 0.0 102823
03:00−2nnw128623 0.0 102822
06:00−1sw248888 0.0 1027157
09:00+1wsw577859 0.0 1026532
12:00+4wsw796263 0.0 10241127
15:00+5wsw8126380 0.0 10221251
18:00+2wsw6147092 0.0 1019733
21:00+2wsw8167196 0.0 1018788
3 march, wed
wed300:000wsw101698100 1.3 1015737
03:00+1wsw101597100 2.6 1013848
06:00+1w81297100 1.8 1011598
09:00+1wnw71197100 2.4 1013601
12:00+2nw61087100 0.9 1015779
15:00+3nw797498 1.1 10171025
18:00+1nw51077100 0.3 1019461
21:00−1nw4108068 0.3 1022347
4 march, thu
thu400:00−2wnw47850 0.0 1023203
03:00−2w48820 0.0 1024251
06:00−2wsw59780 0.0 1023315
09:00+1wsw711670 0.0 1023626
12:00+5wsw811560 0.0 10211035
15:00+6wsw812570 0.0 10201150
18:00+3sw613740 0.0 1018345
21:00+2sw616780 0.0 1018508
5 march, fri
fri500:00+1sw7168612 0.0 1017573
03:00+1sw8168946 0.0 1016591
06:00+1sw8178740 0.0 1015593
09:00+3wsw10167830 0.0 1016748
12:00+7wsw9136763 0.0 1015893
15:00+9wsw8116252 0.0 10141042
18:00+7sw5117130 0.0 1014278
21:00+5ssw6157254 0.0 1014436
6 march, sat
sat600:00+4sw7157386 0.0 1013588
03:00+3sw6167493 0.0 1012536
06:00+3sw71677100 0.0 1012563
09:00+5wsw81383100 0.0 1012639
12:00+5wnw5993100 0.6 1013514
15:00+1n5796100 1.3 1014296
18:00+1n4697100 0.9 1015281
21:000n5876100 1.1 1017636